| time (UTC) | temp F | wind direction | speed MPH | gust MPH | rain 1hr in | rain 24hr in | rain mn in | humidity % | barometer mb |
| 20260503220547 | 65 | 238 | 4.0 | 16.0 | 0.00 | 0.00 | 0.00 | 48 | 1004.5 |
| 20260503220057 | 65 | 240 | 5.0 | 12.0 | 0.00 | 0.00 | 0.00 | 49 | 1004.5 |
| 20260503215545 | 65 | 250 | 2.0 | 12.0 | 0.00 | 0.00 | 0.00 | 49 | 1004.5 |
| 20260503215047 | 65 | 188 | 6.0 | 10.0 | 0.00 | 0.00 | 0.00 | 49 | 1004.5 |
| 20260503214549 | 65 | 215 | 3.0 | 12.0 | 0.00 | 0.00 | 0.00 | 50 | 1004.5 |
| 20260503214044 | 65 | 235 | 6.0 | 12.0 | 0.00 | 0.00 | 0.00 | 48 | 1004.7 |
| 20260503213547 | 65 | 228 | 4.0 | 12.0 | 0.00 | 0.00 | 0.00 | 48 | 1004.8 |
| 20260503213056 | 65 | 260 | 2.0 | 12.0 | 0.00 | 0.00 | 0.00 | 48 | 1005.0 |
| 20260503212544 | 65 | 225 | 5.0 | 13.0 | 0.00 | 0.00 | 0.00 | 48 | 1004.7 |
| 20260503212044 | 66 | 207 | 5.0 | 13.0 | 0.00 | 0.00 | 0.00 | 49 | 1004.9 |
| 20260503211554 | 66 | 220 | 1.0 | 13.0 | 0.00 | 0.00 | 0.00 | 49 | 1005.0 |
| 20260503211044 | 65 | 205 | 3.0 | 19.0 | 0.00 | 0.00 | 0.00 | 51 | 1005.1 |
| 20260503210546 | 64 | 196 | 5.0 | 20.0 | 0.00 | 0.00 | 0.00 | 49 | 1005.0 |
| 20260503210052 | 65 | 234 | 6.0 | 20.0 | 0.00 | 0.00 | 0.00 | 49 | 1005.2 |
| 20260503205544 | 66 | 209 | 7.0 | 16.0 | 0.00 | 0.00 | 0.00 | 48 | 1005.2 |
| 20260503205046 | 66 | 229 | 7.0 | 16.0 | 0.00 | 0.00 | 0.00 | 46 | 1005.3 |
| 20260503204554 | 67 | 249 | 5.0 | 13.0 | 0.00 | 0.00 | 0.00 | 46 | 1005.3 |
| 20260503204045 | 66 | 234 | 4.0 | 20.0 | 0.00 | 0.00 | 0.00 | 49 | 1005.3 |
| 20260503203547 | 65 | 202 | 5.0 | 21.0 | 0.00 | 0.00 | 0.00 | 51 | 1005.4 |
| 20260503203059 | 65 | 214 | 7.0 | 21.0 | 0.00 | 0.00 | 0.00 | 52 | 1005.6 |
| 20260503202545 | 65 | 208 | 6.0 | 14.0 | 0.00 | 0.00 | 0.00 | 51 | 1005.7 |
| 20260503202047 | 64 | 223 | 7.0 | 16.0 | 0.00 | 0.00 | 0.00 | 53 | 1006.0 |
| 20260503201555 | 63 | 192 | 8.0 | 20.0 | 0.00 | 0.00 | 0.00 | 54 | 1006.1 |
| 20260503201046 | 64 | 259 | 7.0 | 22.0 | 0.00 | 0.00 | 0.00 | 53 | 1006.3 |
| 20260503200546 | 63 | 192 | 10.0 | 22.0 | 0.00 | 0.00 | 0.00 | 55 | 1006.3 |
| 20260503200100 | 63 | 198 | 8.0 | 18.0 | 0.00 | 0.00 | 0.00 | 54 | 1006.5 |
| 20260503195544 | 64 | 198 | 8.0 | 17.0 | 0.00 | 0.00 | 0.00 | 53 | 1006.6 |
| 20260503195044 | 64 | 221 | 7.0 | 13.0 | 0.00 | 0.00 | 0.00 | 54 | 1006.5 |
| 20260503194600 | 64 | 196 | 5.0 | 15.0 | 0.00 | 0.00 | 0.00 | 53 | 1006.6 |
| 20260503194047 | 63 | 259 | 7.0 | 21.0 | 0.00 | 0.00 | 0.00 | 54 | 1006.7 |
| 20260503193548 | 63 | 190 | 3.0 | 21.0 | 0.00 | 0.00 | 0.00 | 53 | 1006.6 |
| 20260503193107 | 64 | 196 | 8.0 | 15.0 | 0.00 | 0.00 | 0.00 | 49 | 1006.8 |
| 20260503192546 | 64 | 237 | 5.0 | 24.0 | 0.00 | 0.00 | 0.00 | 49 | 1006.7 |
| 20260503192049 | 64 | 261 | 9.0 | 24.0 | 0.00 | 0.00 | 0.00 | 49 | 1006.9 |
| 20260503191604 | 64 | 198 | 7.0 | 22.0 | 0.00 | 0.00 | 0.00 | 51 | 1006.7 |
| 20260503191046 | 63 | 215 | 10.0 | 22.0 | 0.00 | 0.00 | 0.00 | 51 | 1006.7 |
| 20260503190545 | 64 | 205 | 8.0 | 21.0 | 0.00 | 0.00 | 0.00 | 49 | 1006.9 |
| 20260503190053 | 64 | 225 | 6.0 | 15.0 | 0.00 | 0.00 | 0.00 | 52 | 1006.8 |
| 20260503185545 | 63 | 196 | 7.0 | 20.0 | 0.00 | 0.00 | 0.00 | 51 | 1006.7 |
| 20260503185042 | 62 | 199 | 11.0 | 20.0 | 0.00 | 0.00 | 0.00 | 53 | 1006.9 |
| 20260503184554 | 63 | 224 | 9.0 | 18.0 | 0.00 | 0.00 | 0.00 | 52 | 1006.8 |
| 20260503184047 | 64 | 217 | 7.0 | 16.0 | 0.00 | 0.00 | 0.00 | 48 | 1006.8 |
| 20260503183547 | 63 | 255 | 5.0 | 15.0 | 0.00 | 0.00 | 0.00 | 48 | 1006.9 |
| 20260503183109 | 63 | 211 | 9.0 | 16.0 | 0.00 | 0.00 | 0.00 | 52 | 1007.1 |
| 20260503182547 | 62 | 249 | 10.0 | 18.0 | 0.00 | 0.00 | 0.00 | 48 | 1007.1 |
| 20260503182047 | 62 | 190 | 8.0 | 19.0 | 0.00 | 0.00 | 0.00 | 51 | 1007.1 |
| 20260503181618 | 61 | 223 | 11.0 | 24.0 | 0.00 | 0.00 | 0.00 | 51 | 1007.3 |
| 20260503181047 | 61 | 223 | 8.0 | 24.0 | 0.00 | 0.00 | 0.00 | 55 | 1007.4 |
| 20260503180547 | 60 | 217 | 14.0 | 23.0 | 0.00 | 0.00 | 0.00 | 58 | 1007.4 |
| 20260503180054 | 59 | 203 | 10.0 | 22.0 | 0.00 | 0.00 | 0.00 | 59 | 1007.5 |
| 20260503175547 | 59 | 180 | 11.0 | 20.0 | 0.00 | 0.00 | 0.00 | 61 | 1007.6 |
| 20260503175048 | 58 | 198 | 10.0 | 20.0 | 0.00 | 0.00 | 0.00 | 61 | 1007.6 |
| 20260503174554 | 58 | 214 | 11.0 | 21.0 | 0.00 | 0.00 | 0.00 | 62 | 1007.7 |
| 20260503174046 | 59 | 208 | 9.0 | 24.0 | 0.00 | 0.00 | 0.00 | 62 | 1007.8 |
| 20260503173546 | 58 | 189 | 6.0 | 26.0 | 0.00 | 0.00 | 0.00 | 62 | 1008.0 |
| 20260503173058 | 57 | 216 | 12.0 | 26.0 | 0.00 | 0.00 | 0.00 | 64 | 1008.1 |
| 20260503172548 | 57 | 182 | 11.0 | 23.0 | 0.00 | 0.00 | 0.00 | 62 | 1008.3 |
| 20260503172048 | 57 | 190 | 8.0 | 23.0 | 0.00 | 0.00 | 0.00 | 64 | 1008.3 |
| 20260503171556 | 57 | 186 | 13.0 | 22.0 | 0.00 | 0.00 | 0.00 | 65 | 1008.4 |
| 20260503171047 | 57 | 197 | 9.0 | 17.0 | 0.00 | 0.00 | 0.00 | 65 | 1008.5 |
| 20260503170547 | 56 | 214 | 8.0 | 17.0 | 0.00 | 0.00 | 0.00 | 64 | 1008.6 |
| 20260503150546 | 56 | 218 | 6.0 | 16.0 | 0.00 | 0.00 | 0.00 | 62 | 1010.4 |
| 20260503131045 | 52 | 257 | 3.0 | 7.0 | 0.00 | 0.00 | 0.00 | 60 | 1011.3 |
| 20260503130545 | 51 | 202 | 2.0 | 10.0 | 0.00 | 0.00 | 0.00 | 61 | 1011.3 |
| 20260503110545 | 48 | 187 | 3.0 | 8.0 | 0.00 | 0.00 | 0.00 | 59 | 1011.1 |
| 20260503100104 | 48 | 208 | 3.0 | 7.0 | 0.00 | 0.00 | 0.00 | 59 | 1011.4 |
| 20260503081556 | 49 | 184 | 1.0 | 8.0 | 0.00 | 0.00 | 0.00 | 54 | 1012.3 |
| 20260503081047 | 49 | 0 | 2.0 | 8.0 | 0.00 | 0.00 | 0.00 | 53 | 1012.3 |
| 20260503080549 | 49 | 180 | 2.0 | 10.0 | 0.00 | 0.00 | 0.00 | 55 | 1012.3 |
| 20260503072546 | 48 | 234 | 2.0 | 6.0 | 0.00 | 0.00 | 0.00 | 57 | 1012.4 |
| 20260503072046 | 48 | 206 | 2.0 | 5.0 | 0.00 | 0.00 | 0.00 | 56 | 1012.5 |
| 20260503071605 | 48 | 206 | 1.0 | 5.0 | 0.00 | 0.00 | 0.00 | 58 | 1012.5 |
| 20260503071045 | 48 | 0 | 2.0 | 5.0 | 0.00 | 0.00 | 0.00 | 57 | 1012.5 |
| 20260503070546 | 48 | 219 | 1.0 | 5.0 | 0.00 | 0.00 | 0.00 | 58 | 1012.6 |
| 20260503070113 | 48 | 213 | 1.0 | 5.0 | 0.00 | 0.00 | 0.00 | 57 | 1012.7 |
| 20260503060119 | 47 | 202 | 2.0 | 5.0 | 0.00 | 0.00 | 0.00 | 59 | 1013.1 |
| 20260503055049 | 47 | 202 | 1.0 | 5.0 | 0.00 | 0.00 | 0.00 | 59 | 1013.2 |
| 20260503054559 | 47 | 211 | 1.0 | 5.0 | 0.00 | 0.00 | 0.00 | 58 | 1013.3 |
| 20260503054045 | 47 | 207 | 1.0 | 5.0 | 0.00 | 0.00 | 0.00 | 59 | 1013.2 |
| 20260503053548 | 47 | 223 | 1.0 | 4.0 | 0.00 | 0.00 | 0.00 | 58 | 1013.3 |
| 20260503053053 | 47 | 214 | 1.0 | 4.0 | 0.00 | 0.00 | 0.00 | 59 | 1013.3 |
| 20260503052545 | 47 | 214 | 2.0 | 4.0 | 0.00 | 0.00 | 0.00 | 59 | 1013.4 |
| 20260503052046 | 47 | 231 | 1.0 | 4.0 | 0.00 | 0.00 | 0.00 | 59 | 1013.4 |
| 20260503051555 | 47 | 205 | 1.0 | 4.0 | 0.00 | 0.00 | 0.00 | 60 | 1013.5 |
| 20260503051046 | 47 | 211 | 1.0 | 4.0 | 0.00 | 0.00 | 0.00 | 60 | 1013.6 |
| 20260503050546 | 47 | 0 | 1.0 | 4.0 | 0.00 | 0.00 | 0.00 | 59 | 1013.5 |
| 20260503050055 | 47 | 212 | 2.0 | 4.0 | 0.00 | 0.00 | 0.00 | 59 | 1013.5 |
| 20260503045546 | 47 | 212 | 1.0 | 4.0 | 0.00 | 0.00 | 0.00 | 60 | 1013.6 |
| 20260503045045 | 47 | 230 | 2.0 | 4.0 | 0.00 | 0.00 | 0.00 | 60 | 1013.6 |
| 20260503044550 | 47 | 205 | 2.0 | 4.0 | 0.00 | 0.00 | 0.00 | 59 | 1013.7 |
| 20260503044049 | 47 | 213 | 2.0 | 4.0 | 0.00 | 0.00 | 0.00 | 58 | 1013.6 |
| 20260503043545 | 47 | 211 | 1.0 | 5.0 | 0.00 | 0.00 | 0.00 | 59 | 1013.6 |
| 20260503043053 | 47 | 0 | 1.0 | 5.0 | 0.00 | 0.00 | 0.00 | 59 | 1013.5 |
| 20260503042545 | 47 | 236 | 1.0 | 5.0 | 0.00 | 0.00 | 0.00 | 59 | 1013.8 |
| 20260503042045 | 47 | 223 | 2.0 | 5.0 | 0.00 | 0.00 | 0.00 | 58 | 1013.6 |
| 20260503041554 | 47 | 207 | 2.0 | 5.0 | 0.00 | 0.00 | 0.00 | 61 | 1013.7 |
| 20260503041046 | 47 | 211 | 2.0 | 5.0 | 0.00 | 0.00 | 0.00 | 58 | 1013.7 |
| 20260503040546 | 48 | 236 | 2.0 | 5.0 | 0.00 | 0.00 | 0.00 | 59 | 1013.8 |
| 20260503040051 | 48 | 0 | 2.0 | 5.0 | 0.00 | 0.00 | 0.00 | 59 | 1013.8 |
| 20260503035545 | 48 | 225 | 1.0 | 5.0 | 0.00 | 0.00 | 0.00 | 59 | 1013.9 |
| 20260503035048 | 48 | 213 | 2.0 | 4.0 | 0.00 | 0.00 | 0.00 | 58 | 1013.9 |
| 20260503034606 | 48 | 209 | 2.0 | 4.0 | 0.00 | 0.00 | 0.00 | 58 | 1013.9 |
| 20260503034049 | 48 | 209 | 1.0 | 4.0 | 0.00 | 0.00 | 0.00 | 58 | 1013.9 |
| 20260503033547 | 48 | 213 | 1.0 | 4.0 | 0.00 | 0.00 | 0.00 | 58 | 1014.0 |
| 20260503033057 | 48 | 188 | 1.0 | 5.0 | 0.00 | 0.00 | 0.00 | 58 | 1014.0 |
| 20260503032547 | 48 | 209 | 1.0 | 5.0 | 0.00 | 0.00 | 0.00 | 60 | 1013.9 |
| 20260503032046 | 48 | 0 | 0.0 | 4.0 | 0.00 | 0.00 | 0.00 | 58 | 1014.0 |
| 20260503031556 | 48 | 0 | 1.0 | 4.0 | 0.00 | 0.00 | 0.00 | 58 | 1014.1 |
| 20260503031046 | 48 | 211 | 1.0 | 4.0 | 0.00 | 0.00 | 0.00 | 60 | 1014.1 |
| 20260503030544 | 48 | 216 | 1.0 | 4.0 | 0.00 | 0.00 | 0.00 | 60 | 1014.1 |
| 20260503030056 | 47 | 209 | 1.0 | 4.0 | 0.00 | 0.00 | 0.00 | 59 | 1014.1 |
| 20260503025547 | 47 | 219 | 1.0 | 4.0 | 0.00 | 0.00 | 0.00 | 61 | 1014.2 |
| 20260503025044 | 46 | 224 | 1.0 | 4.0 | 0.00 | 0.00 | 0.00 | 63 | 1014.2 |
| 20260503024550 | 45 | 215 | 1.0 | 3.0 | 0.00 | 0.00 | 0.00 | 69 | 1014.3 |
| 20260503024042 | 43 | 0 | 0.0 | 2.0 | 0.00 | 0.00 | 0.00 | 77 | 1014.3 |
| 20260503023542 | 43 | 0 | 0.0 | 0.0 | 0.00 | 0.00 | 0.00 | 75 | 1014.2 |
| 20260503023057 | 43 | 0 | 0.0 | 0.0 | 0.00 | 0.00 | 0.00 | 74 | 1014.3 |
| 20260503022544 | 43 | 0 | 0.0 | 0.0 | 0.00 | 0.00 | 0.00 | 73 | 1014.3 |
| 20260503022046 | 43 | 0 | 0.0 | 0.0 | 0.00 | 0.00 | 0.00 | 72 | 1014.4 |
| 20260503021549 | 43 | 0 | 0.0 | 0.0 | 0.00 | 0.00 | 0.00 | 71 | 1014.3 |
| 20260503021042 | 44 | 0 | 0.0 | 0.0 | 0.00 | 0.00 | 0.00 | 71 | 1014.3 |
| 20260503020542 | 44 | 0 | 0.0 | 0.0 | 0.00 | 0.00 | 0.00 | 70 | 1014.3 |
| 20260503020045 | 44 | 0 | 0.0 | 0.0 | 0.00 | 0.00 | 0.00 | 70 | 1014.2 |
| 20260503015542 | 44 | 0 | 0.0 | 0.0 | 0.00 | 0.00 | 0.00 | 69 | 1014.2 |
| 20260503015045 | 45 | 0 | 0.0 | 0.0 | 0.00 | 0.00 | 0.00 | 68 | 1014.2 |
| 20260503014549 | 45 | 0 | 0.0 | 0.0 | 0.00 | 0.00 | 0.00 | 67 | 1014.1 |
| 20260503014042 | 45 | 0 | 0.0 | 0.0 | 0.00 | 0.00 | 0.00 | 67 | 1014.1 |
| 20260503013542 | 46 | 0 | 0.0 | 0.0 | 0.00 | 0.00 | 0.00 | 65 | 1014.2 |
| 20260503013054 | 47 | 0 | 0.0 | 0.0 | 0.00 | 0.00 | 0.00 | 64 | 1014.1 |
| 20260503012545 | 47 | 0 | 0.0 | 0.0 | 0.00 | 0.00 | 0.00 | 62 | 1014.1 |
| 20260503012042 | 48 | 0 | 0.0 | 0.0 | 0.00 | 0.00 | 0.00 | 62 | 1014.1 |
| 20260503011604 | 50 | 0 | 0.0 | 1.0 | 0.00 | 0.00 | 0.00 | 59 | 1014.1 |
| 20260503011045 | 51 | 0 | 0.0 | 4.0 | 0.00 | 0.00 | 0.00 | 57 | 1014.1 |
| 20260503010546 | 52 | 0 | 1.0 | 4.0 | 0.00 | 0.00 | 0.00 | 50 | 1014.1 |
| 20260503010117 | 52 | 220 | 0.0 | 3.0 | 0.00 | 0.00 | 0.00 | 49 | 1014.1 |
| 20260503005542 | 52 | 0 | 0.0 | 3.0 | 0.00 | 0.00 | 0.00 | 49 | 1014.0 |
| 20260503005043 | 52 | 213 | 1.0 | 3.0 | 0.00 | 0.00 | 0.00 | 48 | 1014.1 |
| 20260503004616 | 53 | 0 | 1.0 | 3.0 | 0.00 | 0.00 | 0.00 | 47 | 1014.1 |
| 20260503004041 | 53 | 207 | 0.0 | 4.0 | 0.00 | 0.00 | 0.00 | 47 | 1014.0 |
| 20260503003542 | 53 | 0 | 0.0 | 4.0 | 0.00 | 0.00 | 0.00 | 47 | 1014.1 |
| 20260503003049 | 53 | 0 | 0.0 | 2.0 | 0.00 | 0.00 | 0.00 | 47 | 1014.1 |
| 20260503002544 | 53 | 0 | 0.0 | 2.0 | 0.00 | 0.00 | 0.00 | 45 | 1014.1 |
| 20260503002042 | 53 | 0 | 0.0 | 3.0 | 0.00 | 0.00 | 0.00 | 45 | 1014.3 |
| 20260503001551 | 53 | 0 | 0.0 | 5.0 | 0.00 | 0.00 | 0.00 | 44 | 1014.2 |
| 20260503001042 | 54 | 0 | 1.0 | 5.0 | 0.00 | 0.00 | 0.00 | 45 | 1014.2 |
| 20260503000541 | 54 | 0 | 2.0 | 4.0 | 0.00 | 0.00 | 0.00 | 44 | 1014.3 |
| 20260503000050 | 54 | 0 | 0.0 | 4.0 | 0.00 | 0.00 | 0.00 | 43 | 1014.4 |
| 20260502235541 | 54 | 221 | 0.0 | 3.0 | 0.00 | 0.00 | 0.00 | 44 | 1014.3 |
| 20260502235045 | 54 | 0 | 0.0 | 2.0 | 0.00 | 0.00 | 0.00 | 43 | 1014.4 |
| 20260502234554 | 54 | 0 | 0.0 | 2.0 | 0.00 | 0.00 | 0.00 | 43 | 1014.4 |
| 20260502234042 | 54 | 0 | 0.0 | 3.0 | 0.00 | 0.00 | 0.00 | 42 | 1014.5 |
| 20260502233545 | 54 | 0 | 0.0 | 4.0 | 0.00 | 0.00 | 0.00 | 42 | 1014.5 |
| 20260502233052 | 54 | 0 | 1.0 | 5.0 | 0.00 | 0.00 | 0.00 | 43 | 1014.6 |
| 20260502232545 | 54 | 0 | 1.0 | 5.0 | 0.00 | 0.00 | 0.00 | 44 | 1014.6 |
| 20260502232047 | 55 | 193 | 0.0 | 3.0 | 0.00 | 0.00 | 0.00 | 42 | 1014.6 |
| 20260502231552 | 55 | 0 | 0.0 | 3.0 | 0.00 | 0.00 | 0.00 | 42 | 1014.6 |
| 20260502231048 | 55 | 0 | 0.0 | 3.0 | 0.00 | 0.00 | 0.00 | 41 | 1014.7 |
| 20260502230546 | 55 | 0 | 0.0 | 3.0 | 0.00 | 0.00 | 0.00 | 43 | 1014.7 |
| 20260502230057 | 55 | 0 | 0.0 | 2.0 | 0.00 | 0.00 | 0.00 | 44 | 1014.8 |
| 20260502225545 | 55 | 0 | 0.0 | 2.0 | 0.00 | 0.00 | 0.00 | 40 | 1014.9 |
| 20260502225045 | 55 | 0 | 0.0 | 2.0 | 0.00 | 0.00 | 0.00 | 41 | 1015.0 |
| 20260502224618 | 56 | 0 | 0.0 | 2.0 | 0.00 | 0.00 | 0.00 | 43 | 1015.0 |
| 20260502224045 | 56 | 0 | 0.0 | 5.0 | 0.00 | 0.00 | 0.00 | 42 | 1015.0 |
| 20260502223546 | 56 | 0 | 0.0 | 5.0 | 0.00 | 0.00 | 0.00 | 42 | 1015.0 |
| 20260502223053 | 56 | 34 | 0.0 | 2.0 | 0.00 | 0.00 | 0.00 | 42 | 1015.0 |
| 20260502222548 | 55 | 360 | 0.0 | 4.0 | 0.00 | 0.00 | 0.00 | 41 | 1015.0 |
| 20260502222045 | 55 | 0 | 0.0 | 4.0 | 0.00 | 0.00 | 0.00 | 41 | 1014.9 |
| 20260502221553 | 56 | 204 | 0.0 | 5.0 | 0.00 | 0.00 | 0.00 | 42 | 1015.0 |
| 20260502221045 | 56 | 205 | 0.0 | 5.0 | 0.00 | 0.00 | 0.00 | 44 | 1015.1 |